Weather reports worldwide

Advertisment
Lulea/Kallax, Sweden (2186): temperature & dewpoint: 17.01.2019 03:00:00 - 23.01.2019 03:00:00 (CET)Lulea/Kallax, Sweden (2186): wind speed & gusts: 17.01.2019 03:00:00 - 23.01.2019 03:00:00 (CET)Lulea/Kallax, Sweden (2186): wind direction: 17.01.2019 03:00:00 - 23.01.2019 03:00:00 (CET)Lulea/Kallax, Sweden (2186): reduced air pressure: 17.01.2019 03:00:00 - 23.01.2019 03:00:00 (CET)Lulea/Kallax, Sweden (2186): visibility: 17.01.2019 03:00:00 - 23.01.2019 03:00:00 (CET)Lulea/Kallax, Sweden (2186): precipitation: 17.01.2019 03:00:00 - 23.01.2019 03:00:00 (CET)
Date & Time tt [°C] td [°C] ff [km/h] ff [kn] fx [km/h] fx [kn] dd ppp [hPa] vv [km] rr [mm]
23.01.2019 03:00:00 -19,2 -21,2 8 4 7 4 NW 1008,1 10 0,0
23.01.2019 02:00:00 -19,7 -21,8 4 2 14 8 NNW 1008,1 4,9 0,0
23.01.2019 01:00:00 -18,4 -20,3 5 3 11 6 NNW 1007,9 10 0,0
23.01.2019 00:00:00 -19,5 -21,6 5 3 14 8 NNW 1007,6 10 0,0
22.01.2019 23:00:00 -20,7 -22,8 4 2 11 6 N 1007,4 10 0,0
22.01.2019 22:00:00 -21,5 -23,7 5 3 11 6 N 1007,1 10 0,0
22.01.2019 21:00:00 -21,8 -24,0 4 2 11 6 N 1006,7 10 0,0
22.01.2019 20:00:00 -20,4 -22,5 5 3 11 6 NNW 1006,5 10 0,0
22.01.2019 19:00:00 -19,7 -21,8 2 1 7 4 - 1006,6 10 0,0
22.01.2019 18:00:00 -20,6 -22,9 2 1 7 4 W 1006,7 10 0,0
22.01.2019 17:00:00 -19,9 -22,0 2 1 4 2 SW 1007,3 10 0,0
22.01.2019 16:00:00 -18,3 -20,3 2 1 7 4 - 1007,2 10 0,0
22.01.2019 15:00:00 -21,5 -23,6 2 1 4 2 - 1007,7 10 0,0
22.01.2019 14:00:00 -21,2 -23,3 0 0 4 2 N 1008,0 10 0,0
22.01.2019 13:00:00 -21,6 -23,8 0 0 0 0 N 1008,7 10 0,0
22.01.2019 12:00:00 -21,6 -24,0 0 0 0 0 N 1009,2 10 0,0
22.01.2019 11:00:00 -22,6 -25,1 0 0 4 2 N 1009,4 10 0,0
22.01.2019 10:00:00 -23,4 -25,7 0 0 4 2 N 1009,7 10 0,0
22.01.2019 09:00:00 -24,5 -27,1 0 0 0 0 N 1010,0 10 0,0
22.01.2019 08:00:00 -22,6 -25,0 0 0 4 2 N 1010,5 10 0,0
22.01.2019 07:00:00 -21,7 -23,9 0 0 0 0 N 1010,6 10 0,0
22.01.2019 06:00:00 -22,2 -24,6 0 0 7 4 N 1010,9 10 0,0
22.01.2019 05:00:00 -20,9 -23,2 0 0 4 2 N 1011,1 10 0,0
22.01.2019 04:00:00 -20,5 -22,8 0 0 0 0 N 1011,9 10 0,0
22.01.2019 03:00:00 -18,9 -20,9 4 2 7 4 WNW 1012,0 10 0,0
22.01.2019 02:00:00 -19,3 -21,3 4 2 11 6 WNW 1012,5 10 0,0
22.01.2019 01:00:00 -19,0 -21,2 2 1 11 6 NNW 1012,5 10 0,0
22.01.2019 00:00:00 -20,2 -22,3 8 4 14 8 NW 1012,9 10 0,0
21.01.2019 23:00:00 -20,0 -22,1 9 5 11 6 NNW 1013,3 10 0,0
21.01.2019 22:00:00 -20,1 -22,2 9 5 11 6 NW 1013,3 10 0,0
21.01.2019 21:00:00 -21,0 -23,3 11 6 14 8 NW 1013,4 10 0,0
21.01.2019 20:00:00 -21,1 -23,4 4 2 11 6 NW 1013,4 10 0,0
21.01.2019 19:00:00 -21,3 -23,5 2 1 7 4 NW 1013,4 10 0,0
21.01.2019 18:00:00 -22,4 -24,8 5 3 7 4 NW 1013,5 10 0,0
21.01.2019 17:00:00 -19,8 -21,9 5 3 7 4 NW 1013,6 10 0,0
21.01.2019 16:00:00 -20,6 -22,9 11 6 14 8 NW 1013,7 10 0,0
21.01.2019 15:00:00 -20,3 -22,4 8 4 14 8 NNW 1013,6 10 0,0
21.01.2019 14:00:00 -20,6 -22,9 5 3 7 4 NNW 1013,6 10 0,0
21.01.2019 13:00:00 -21,1 -23,4 8 4 11 6 NNW 1013,7 10 0,0
21.01.2019 12:00:00 -20,1 -22,2 5 3 7 4 NNW 1013,9 10 0,0
21.01.2019 11:00:00 -20,5 -22,8 5 3 11 6 N 1014,0 10 0,0
21.01.2019 10:00:00 -24,5 -27,1 2 1 4 2 - 1014,1 10 0,0
21.01.2019 09:00:00 -24,8 -27,3 0 0 4 2 N 1013,7 10 0,0
21.01.2019 08:00:00 -25,5 -28,2 0 0 4 2 N 1013,6 10 0,0
21.01.2019 07:00:00 -24,2 -26,7 4 2 7 4 NNW 1013,5 10 0,0
21.01.2019 06:00:00 -23,6 -25,9 0 0 7 4 N 1013,5 10 0,0
21.01.2019 05:00:00 -22,1 -24,3 0 0 7 4 N 1013,6 10 0,0
21.01.2019 04:00:00 -21,4 -23,6 2 1 7 4 NNW 1013,9 10 0,0
21.01.2019 03:00:00 -20,0 -22,1 2 1 7 4 NNW 1013,8 10 0,0
21.01.2019 02:00:00 -19,1 -21,0 5 3 7 4 NNW 1013,7 10 0,0
21.01.2019 01:00:00 -19,4 -21,4 5 3 11 6 NNW 1013,5 10 0,0
21.01.2019 00:00:00 -19,9 -22,0 11 6 11 6 NNW 1013,3 10 0,0
20.01.2019 23:00:00 -20,2 -22,3 5 3 11 6 NNW 1013,4 10 0,0
20.01.2019 22:00:00 -19,6 -21,7 9 5 11 6 NW 1013,1 10 0,0
20.01.2019 21:00:00 -18,6 -20,6 4 2 11 6 NNW 1012,5 10 0,0
20.01.2019 20:00:00 -18,5 -20,5 5 3 14 8 NNW 1011,9 10 0,0
20.01.2019 19:00:00 -19,0 -20,9 5 3 14 8 NNW 1011,6 10 0,0
20.01.2019 18:00:00 -19,0 -20,9 8 4 18 10 N 1011,1 10 0,0
20.01.2019 17:00:00 -18,7 -20,6 11 6 18 10 NNW 1010,7 10 0,0
20.01.2019 16:00:00 -18,7 -20,6 8 4 14 8 N 1010,5 10 0,0
20.01.2019 15:00:00 -17,7 -19,6 11 6 14 8 NW 1010,2 10 0,0
20.01.2019 14:00:00 -16,5 -18,3 8 4 14 8 N 1009,9 10 0,0
20.01.2019 13:00:00 -15,7 -17,6 8 4 14 8 NNW 1009,5 10 0,0
20.01.2019 12:00:00 -16,7 -18,5 8 4 14 8 NW 1009,2 10 0,0
20.01.2019 11:00:00 -18,9 -20,9 2 1 11 6 - 1009,1 10 0,0
20.01.2019 10:00:00 -19,3 -21,2 11 6 14 8 NW 1009,0 10 0,0
20.01.2019 09:00:00 -20,2 -22,3 9 5 14 8 NNW 1008,6 10 0,0
20.01.2019 08:00:00 -20,1 -22,2 8 4 14 8 NNW 1008,2 10 0,0
20.01.2019 07:00:00 -21,5 -23,7 5 3 14 8 NW 1007,8 10 0,0
20.01.2019 06:00:00 -20,6 -22,7 4 2 14 8 N 1007,7 10 0,0
20.01.2019 05:00:00 -20,3 -22,4 15 8 18 10 NW 1007,2 10 0,0
20.01.2019 04:00:00 -20,9 -23,2 13 7 14 8 NW 1006,8 10 0,0
20.01.2019 03:00:00 -20,8 -23,1 5 3 14 8 NNW 1006,4 10 0,0
20.01.2019 02:00:00 -21,1 -23,4 9 5 14 8 NNW 1006,1 10 0,0
20.01.2019 01:00:00 -20,8 -23,1 15 8 22 12 NW 1005,7 10 0,0
20.01.2019 00:00:00 -21,4 -23,6 9 5 18 10 NNW 1005,3 10 0,0
19.01.2019 23:00:00 -21,2 -23,5 11 6 18 10 NW 1005,1 10 0,0
19.01.2019 22:00:00 -20,5 -22,8 13 7 18 10 NNW 1004,6 10 0,0
19.01.2019 21:00:00 -20,5 -22,8 9 5 14 8 NNW 1004,0 10 0,0
19.01.2019 20:00:00 -21,0 -23,4 9 5 14 8 NNW 1003,4 8 0,0
19.01.2019 19:00:00 -22,1 -24,5 4 2 14 8 NNW 1003,1 10 0,0
19.01.2019 18:00:00 -23,5 -25,8 2 1 7 4 NNW 1002,9 10 0,0
19.01.2019 17:00:00 -24,8 -27,4 4 2 7 4 NW 1002,5 10 0,0
19.01.2019 16:00:00 -25,2 -27,8 5 3 14 8 NNW 1002,2 10 0,0
19.01.2019 15:00:00 -24,9 -27,3 5 3 14 8 NNW 1001,7 10 0,0
19.01.2019 14:00:00 -25,0 -27,7 8 4 14 8 N 1001,7 10 0,0
19.01.2019 13:00:00 -24,4 -27,0 5 3 14 8 N 1001,2 10 0,0
19.01.2019 12:00:00 -24,7 -27,3 8 4 11 6 NW 1001,1 10 0,0
19.01.2019 11:00:00 -25,1 -27,8 9 5 14 8 NNW 1000,9 10 0,0
19.01.2019 10:00:00 -25,1 -27,7 4 2 14 8 - 1000,8 10 0,0
19.01.2019 09:00:00 -25,2 -27,6 5 3 7 4 NW 1000,4 10 0,0
19.01.2019 08:00:00 -24,5 -27,0 8 4 11 6 NNW 1000,6 10 0,0
19.01.2019 07:00:00 -24,5 -27,0 0 0 11 6 N 1000,4 10 0,0
19.01.2019 06:00:00 -24,6 -27,2 0 0 4 2 N 1000,3 10 0,0
19.01.2019 05:00:00 -24,0 -26,6 4 2 7 4 NNW 1000,6 10 0,0
19.01.2019 04:00:00 -23,5 -26,1 4 2 7 4 NNW 1000,4 10 0,0
19.01.2019 03:00:00 -23,3 -25,8 0 0 7 4 N 1000,4 10 0,0
19.01.2019 02:00:00 -23,2 -25,6 4 2 7 4 NNW 1000,8 10 0,0
19.01.2019 01:00:00 -22,8 -25,3 5 3 7 4 NW 1000,8 10 0,0
19.01.2019 00:00:00 -23,0 -25,4 2 1 7 4 NNW 1000,8 10 0,0
18.01.2019 23:00:00 -22,8 -25,2 2 1 11 6 NNW 1000,4 10 0,0
18.01.2019 22:00:00 -21,9 -24,1 5 3 11 6 N 1000,5 10 0,0
18.01.2019 21:00:00 -22,7 -25,1 5 3 14 8 NNW 1000,1 10 0,0
18.01.2019 20:00:00 -22,5 -25,0 5 3 11 6 NNW 999,9 10 0,0
18.01.2019 19:00:00 -20,5 -22,8 5 3 7 4 NNW 999,5 3,0 0,1
18.01.2019 18:00:00 -21,2 -23,5 8 4 11 6 N 999,4 10 0,0
18.01.2019 17:00:00 -21,6 -23,8 5 3 11 6 NNW 999,0 10 0,0
18.01.2019 16:00:00 -20,8 -23,1 9 5 11 6 NW 998,6 10 0,0
18.01.2019 15:00:00 -20,5 -22,8 5 3 11 6 NNW 998,2 10 0,0
18.01.2019 14:00:00 -19,7 -21,8 5 3 14 8 N 997,8 10 0,0
18.01.2019 13:00:00 -19,0 -21,2 13 7 14 8 NW 997,8 10 0,0
18.01.2019 12:00:00 -18,5 -20,7 8 4 14 8 NNW 997,2 10 0,0
18.01.2019 11:00:00 -18,6 -20,8 8 4 14 8 NNW 996,5 10 0,0
18.01.2019 10:00:00 -18,0 -20,2 8 4 14 8 NW 996,1 10 0,0
18.01.2019 09:00:00 -17,0 -19,1 11 6 18 10 NNW 995,4 10 0,0
18.01.2019 08:00:00 -16,4 -18,6 13 7 25 14 N 994,8 10 0,0
18.01.2019 07:00:00 -16,0 -18,2 15 8 25 14 N 994,1 10 0,0
18.01.2019 06:00:00 -17,0 -19,1 15 8 25 14 NNW 993,6 10 0,0
18.01.2019 05:00:00 -17,3 -19,5 13 7 22 12 NNW 993,1 10 0,0
18.01.2019 04:00:00 -17,4 -19,4 13 7 22 12 NNW 992,6 10 0,0
18.01.2019 03:00:00 -17,7 -19,9 13 7 22 12 NNW 992,0 10 0,0
18.01.2019 02:00:00 -18,0 -20,0 13 7 22 12 NNW 991,7 10 0,0
18.01.2019 01:00:00 -17,8 -20,0 15 8 22 12 NNW 991,3 10 0,0
18.01.2019 00:00:00 -18,1 -20,3 11 6 22 12 NNW 990,9 10 0,0
17.01.2019 23:00:00 -18,9 -21,1 13 7 22 12 NNW 990,9 10 0,0
17.01.2019 22:00:00 -19,0 -21,2 13 7 22 12 NNW 990,4 10 0,0
17.01.2019 21:00:00 -20,3 -22,4 11 6 18 10 NNW 990,2 10 0,0
17.01.2019 20:00:00 -20,8 -23,1 13 7 18 10 NNW 989,9 10 0,0
17.01.2019 19:00:00 -21,2 -23,5 13 7 18 10 NNW 989,9 10 0,0
17.01.2019 18:00:00 -21,5 -23,7 13 7 18 10 NNW 989,9 10 0,0
17.01.2019 17:00:00 -22,3 -24,5 13 7 22 12 NNW 989,9 10 0,0
17.01.2019 16:00:00 -22,4 -24,8 11 6 18 10 NNW 989,8 10 0,0
17.01.2019 15:00:00 -21,8 -24,0 11 6 18 10 NW 989,6 10 0,0
17.01.2019 14:00:00 -21,9 -24,1 9 5 14 8 NNW 989,5 10 0,0
17.01.2019 13:00:00 -21,3 -23,5 13 7 14 8 NNW 989,6 10 0,0
17.01.2019 12:00:00 -22,1 -24,3 11 6 14 8 NNW 989,9 10 0,0
17.01.2019 11:00:00 -22,3 -24,5 8 4 14 8 NNW 990,2 10 0,0
17.01.2019 10:00:00 -22,5 -24,9 8 4 11 6 NNW 990,5 10 0,0
17.01.2019 09:00:00 -22,6 -25,0 5 3 11 6 NNW 990,7 10 0,0
17.01.2019 08:00:00 -22,4 -24,8 5 3 11 6 NW 990,4 10 0,0
17.01.2019 07:00:00 -21,9 -24,1 4 2 7 4 NNW 990,3 10 0,0
17.01.2019 06:00:00 -22,4 -24,8 8 4 14 8 NNW 990,5 10 0,0
17.01.2019 05:00:00 -22,5 -24,9 8 4 14 8 N 990,8 10 0,0
17.01.2019 04:00:00 -21,9 -24,1 5 3 14 8 NNW 991,1 10 0,0
17.01.2019 03:00:00 -20,7 -22,8 9 5 18 10 NW 991,4 9 0,0

tt = temperature
td = dewpoint
ff = wind speed
fx = gusts
dd = wind direction
ppp = reduced air pressure
vv = visibility
rr = precipitation

Next stations